Time,TemperatureF,DewpointF,PressureIn,WindDirection,WindDirectionDegrees,WindSpeedMPH,WindSpeedGustMPH,Humidity,HourlyPrecipIn,Conditions,Clouds,dailyrainin,SoftwareType,DateUTC
2013-08-17 00:13:00,69.0,62.0,30.12,East,81,1.0,3.0,79,0.00,,,0.00,,2013-08-17 05:13:00,
2013-08-17 00:22:00,69.0,63.0,30.12,East,82,1.0,4.0,80,0.00,,,0.00,,2013-08-17 05:22:00,
2013-08-17 00:42:00,69.0,63.0,30.12,East,82,0.0,4.0,81,0.00,,,0.00,,2013-08-17 05:42:00,
2013-08-17 00:51:00,68.0,62.0,30.12,East,82,0.0,3.0,81,0.00,,,0.00,,2013-08-17 05:51:00,
2013-08-17 01:12:00,68.0,62.0,30.12,East,82,0.0,3.0,81,0.00,,,0.00,,2013-08-17 06:12:00,
2013-08-17 01:21:00,68.0,62.0,30.12,East,82,0.0,2.0,81,0.00,,,0.00,,2013-08-17 06:21:00,
2013-08-17 01:42:00,68.0,62.0,30.12,East,82,0.0,1.0,82,0.00,,,0.00,,2013-08-17 06:42:00,
2013-08-17 01:51:00,68.0,62.0,30.11,East,82,0.0,0.0,82,0.00,,,0.00,,2013-08-17 06:51:00,
2013-08-17 02:01:00,68.0,62.0,30.11,East,82,0.0,0.0,82,0.00,,,0.00,,2013-08-17 07:01:00,
2013-08-17 02:11:00,68.0,62.0,30.11,East,82,0.0,0.0,82,0.00,,,0.00,,2013-08-17 07:11:00,
2013-08-17 02:22:00,68.0,62.0,30.11,East,82,0.0,2.0,82,0.00,,,0.00,,2013-08-17 07:22:00,
2013-08-17 02:42:00,68.0,62.0,30.11,East,82,0.0,1.0,82,0.00,,,0.00,,2013-08-17 07:42:00,
2013-08-17 02:52:00,68.0,62.0,30.11,East,82,0.0,2.0,82,0.00,,,0.00,,2013-08-17 07:52:00,
2013-08-17 03:11:00,67.0,61.0,30.11,East,82,0.0,3.0,82,0.00,,,0.00,,2013-08-17 08:11:00,
2013-08-17 03:21:00,67.0,61.0,30.11,East,82,1.0,3.0,82,0.00,,,0.00,,2013-08-17 08:21:00,
2013-08-17 03:42:00,67.0,61.0,30.11,East,82,1.0,3.0,82,0.00,,,0.00,,2013-08-17 08:42:00,
2013-08-17 03:52:00,67.0,62.0,30.11,East,82,0.0,1.0,83,0.00,,,0.00,,2013-08-17 08:52:00,
2013-08-17 04:11:00,67.0,62.0,30.11,East,82,0.0,1.0,84,0.00,,,0.00,,2013-08-17 09:11:00,
2013-08-17 04:21:00,66.0,61.0,30.11,ENE,77,0.0,3.0,85,0.00,,,0.00,,2013-08-17 09:21:00,
2013-08-17 04:43:00,66.0,61.0,30.11,ENE,77,0.0,1.0,85,0.00,,,0.00,,2013-08-17 09:43:00,
2013-08-17 04:53:00,66.0,61.0,30.11,ENE,77,0.0,2.0,85,0.00,,,0.00,,2013-08-17 09:53:00,
2013-08-17 05:12:00,66.0,62.0,30.10,ENE,77,0.0,2.0,86,0.00,,,0.00,,2013-08-17 10:12:00,
2013-08-17 05:23:00,66.0,61.0,30.10,ENE,77,1.0,3.0,85,0.00,,,0.00,,2013-08-17 10:23:00,
2013-08-17 05:42:00,66.0,62.0,30.10,ENE,77,0.0,2.0,86,0.00,,,0.00,,2013-08-17 10:42:00,
2013-08-17 05:52:00,66.0,62.0,30.11,ENE,77,0.0,2.0,86,0.00,,,0.00,,2013-08-17 10:52:00,
2013-08-17 06:11:00,66.0,62.0,30.11,ENE,77,0.0,1.0,86,0.00,,,0.00,,2013-08-17 11:11:00,
2013-08-17 06:22:00,66.0,62.0,30.11,ENE,77,0.0,2.0,87,0.00,,,0.00,,2013-08-17 11:22:00,
2013-08-17 06:42:00,65.0,61.0,30.12,ENE,77,0.0,3.0,87,0.00,,,0.00,,2013-08-17 11:42:00,
2013-08-17 06:52:00,65.0,61.0,30.13,ENE,77,1.0,6.0,88,0.00,,,0.00,,2013-08-17 11:52:00,
2013-08-17 07:11:00,65.0,61.0,30.13,ENE,77,1.0,3.0,88,0.00,,,0.00,,2013-08-17 12:11:00,
2013-08-17 07:21:00,65.0,62.0,30.14,ENE,77,1.0,4.0,89,0.00,,,0.00,,2013-08-17 12:21:00,
2013-08-17 07:42:00,65.0,62.0,30.14,ENE,77,1.0,3.0,90,0.02,,,0.02,,2013-08-17 12:42:00,
2013-08-17 07:52:00,65.0,63.0,30.14,ENE,77,0.0,2.0,92,0.03,,,0.03,,2013-08-17 12:52:00,
2013-08-17 08:11:00,65.0,63.0,30.14,ENE,77,1.0,3.0,92,0.08,,,0.08,,2013-08-17 13:11:00,
2013-08-17 08:21:00,65.0,63.0,30.14,ENE,77,0.0,4.0,93,0.10,,,0.10,,2013-08-17 13:21:00,
2013-08-17 08:42:00,65.0,63.0,30.15,ENE,77,0.0,2.0,93,0.09,,,0.11,,2013-08-17 13:42:00,
2013-08-17 08:52:00,65.0,63.0,30.15,ENE,77,1.0,5.0,93,0.09,,,0.12,,2013-08-17 13:52:00,
2013-08-17 09:11:00,65.0,63.0,30.15,ENE,78,0.0,4.0,93,0.04,,,0.12,,2013-08-17 14:11:00,
2013-08-17 09:21:00,66.0,64.0,30.15,East,82,2.0,7.0,93,0.03,,,0.13,,2013-08-17 14:21:00,
2013-08-17 09:42:00,66.0,64.0,30.16,ENE,71,2.0,7.0,93,0.02,,,0.13,,2013-08-17 14:42:00,
2013-08-17 09:52:00,67.0,65.0,30.16,ENE,59,0.0,6.0,94,0.01,,,0.13,,2013-08-17 14:52:00,
2013-08-17 10:11:00,67.0,65.0,30.16,East,86,1.0,5.0,92,0.01,,,0.13,,2013-08-17 15:11:00,
2013-08-17 10:22:00,67.0,65.0,30.18,NNE,19,1.0,4.0,92,0.00,,,0.13,,2013-08-17 15:22:00,
2013-08-17 10:44:00,67.0,65.0,30.17,NNW,347,1.0,6.0,92,0.00,,,0.13,,2013-08-17 15:44:00,
2013-08-17 10:53:00,68.0,65.0,30.18,NNE,24,0.0,5.0,91,0.00,,,0.13,,2013-08-17 15:53:00,
2013-08-17 11:03:00,68.0,65.0,30.18,NNE,24,0.0,5.0,91,0.00,,,0.13,,2013-08-17 16:03:00,
2013-08-17 11:12:00,68.0,65.0,30.18,NNE,24,0.0,5.0,91,0.00,,,0.13,,2013-08-17 16:12:00,
2013-08-17 11:23:00,70.0,66.0,30.17,North,355,0.0,6.0,87,0.00,,,0.13,,2013-08-17 16:23:00,
2013-08-17 11:42:00,72.0,67.0,30.16,East,92,0.0,7.0,85,0.00,,,0.13,,2013-08-17 16:42:00,
2013-08-17 11:53:00,74.0,68.0,30.15,North,355,0.0,4.0,81,0.00,,,0.13,,2013-08-17 16:53:00,
2013-08-17 12:12:00,74.0,67.0,30.15,ENE,65,0.0,5.0,79,0.00,,,0.13,,2013-08-17 17:12:00,
2013-08-17 12:23:00,75.0,66.0,30.15,East,94,2.0,7.0,73,0.00,,,0.13,,2013-08-17 17:23:00,
2013-08-17 12:42:00,76.0,67.0,30.14,SE,126,2.0,7.0,73,0.00,,,0.13,,2013-08-17 17:42:00,
2013-08-17 12:52:00,77.0,66.0,30.13,SSE,151,3.0,8.0,68,0.00,,,0.13,,2013-08-17 17:52:00,
2013-08-17 13:12:00,77.0,66.0,30.12,NE,43,0.0,7.0,69,0.00,,,0.13,,2013-08-17 18:12:00,
2013-08-17 13:21:00,78.0,67.0,30.12,East,80,2.0,8.0,68,0.00,,,0.13,,2013-08-17 18:21:00,
2013-08-17 13:42:00,78.0,67.0,30.12,East,83,3.0,9.0,68,0.00,,,0.13,,2013-08-17 18:42:00,
2013-08-17 13:52:00,78.0,67.0,30.11,ENE,58,3.0,11.0,69,0.00,,,0.13,,2013-08-17 18:52:00,
2013-08-17 14:11:00,78.0,66.0,30.11,ENE,65,4.0,9.0,67,0.00,,,0.13,,2013-08-17 19:11:00,
2013-08-17 14:21:00,78.0,67.0,30.11,SE,131,3.0,9.0,69,0.00,,,0.13,,2013-08-17 19:21:00,
2013-08-17 14:42:00,78.0,67.0,30.11,SE,129,3.0,8.0,70,0.00,,,0.13,,2013-08-17 19:42:00,
2013-08-17 14:52:00,78.0,67.0,30.11,SE,128,2.0,8.0,68,0.00,,,0.13,,2013-08-17 19:52:00,
2013-08-17 15:11:00,78.0,66.0,30.10,ENE,66,2.0,7.0,67,0.00,,,0.13,,2013-08-17 20:11:00,
2013-08-17 15:21:00,78.0,66.0,30.09,ENE,59,4.0,9.0,66,0.00,,,0.13,,2013-08-17 20:21:00,
2013-08-17 15:42:00,78.0,67.0,30.09,ENE,59,2.0,8.0,68,0.00,,,0.13,,2013-08-17 20:42:00,
2013-08-17 15:52:00,78.0,67.0,30.09,ESE,108,5.0,9.0,68,0.00,,,0.13,,2013-08-17 20:52:00,
2013-08-17 16:11:00,78.0,67.0,30.09,ESE,111,5.0,9.0,69,0.00,,,0.13,,2013-08-17 21:11:00,
2013-08-17 16:21:00,79.0,67.0,30.08,ESE,118,1.0,8.0,67,0.00,,,0.13,,2013-08-17 21:21:00,
2013-08-17 16:42:00,80.0,68.0,30.08,East,97,3.0,8.0,66,0.00,,,0.13,,2013-08-17 21:42:00,
2013-08-17 16:53:00,78.0,67.0,30.08,East,95,2.0,7.0,68,0.00,,,0.13,,2013-08-17 21:53:00,
2013-08-17 17:13:00,77.0,70.0,30.08,ENE,78,0.0,5.0,79,0.01,,,0.14,,2013-08-17 22:13:00,
2013-08-17 17:22:00,76.0,68.0,30.08,East,84,1.0,6.0,77,0.01,,,0.14,,2013-08-17 22:22:00,
2013-08-17 17:42:00,76.0,69.0,30.08,ENE,76,0.0,5.0,79,0.01,,,0.14,,2013-08-17 22:42:00,
2013-08-17 17:52:00,75.0,69.0,30.08,NW,325,0.0,4.0,82,0.01,,,0.14,,2013-08-17 22:52:00,
2013-08-17 18:11:00,74.0,68.0,30.08,NNE,28,1.0,2.0,82,0.00,,,0.14,,2013-08-17 23:11:00,
2013-08-17 18:22:00,73.0,68.0,30.09,NNW,347,0.0,2.0,83,0.00,,,0.14,,2013-08-17 23:22:00,
2013-08-17 18:42:00,73.0,68.0,30.10,NNW,347,0.0,1.0,85,0.01,,,0.15,,2013-08-17 23:42:00,
2013-08-17 18:52:00,71.0,68.0,30.10,WNW,303,0.0,3.0,89,0.02,,,0.16,,2013-08-17 23:52:00,
2013-08-17 19:12:00,70.0,68.0,30.10,NW,324,2.0,4.0,92,0.05,,,0.19,,2013-08-18 00:12:00,
2013-08-17 19:21:00,70.0,68.0,30.09,NNW,341,0.0,5.0,93,0.09,,,0.23,,2013-08-18 00:21:00,
2013-08-17 19:42:00,70.0,68.0,30.10,NW,324,1.0,4.0,92,0.10,,,0.25,,2013-08-18 00:42:00,
2013-08-17 19:52:00,70.0,68.0,30.10,NNW,332,2.0,5.0,92,0.11,,,0.27,,2013-08-18 00:52:00,
2013-08-17 20:11:00,70.0,68.0,30.10,NW,319,2.0,5.0,92,0.09,,,0.28,,2013-08-18 01:11:00,
2013-08-17 20:21:00,70.0,68.0,30.10,NW,318,1.0,4.0,92,0.05,,,0.28,,2013-08-18 01:21:00,
2013-08-17 20:42:00,69.0,66.0,30.10,NW,326,2.0,4.0,91,0.03,,,0.28,,2013-08-18 01:42:00,
2013-08-17 20:52:00,69.0,66.0,30.11,NW,304,0.0,4.0,91,0.01,,,0.28,,2013-08-18 01:52:00,
2013-08-17 21:11:00,69.0,67.0,30.11,NNW,338,1.0,4.0,92,0.00,,,0.28,,2013-08-18 02:11:00,
2013-08-17 21:21:00,69.0,67.0,30.11,NW,321,0.0,3.0,92,0.00,,,0.28,,2013-08-18 02:21:00,
2013-08-17 21:42:00,68.0,66.0,30.11,NNE,26,0.0,3.0,92,0.00,,,0.28,,2013-08-18 02:42:00,
2013-08-17 21:52:00,68.0,66.0,30.13,SSE,156,1.0,3.0,92,0.00,,,0.28,,2013-08-18 02:52:00,
2013-08-17 22:11:00,67.0,65.0,30.14,NE,49,4.0,9.0,93,0.20,,,0.48,,2013-08-18 03:11:00,
2013-08-17 22:21:00,67.0,65.0,30.14,ENE,59,1.0,4.0,94,0.28,,,0.56,,2013-08-18 03:21:00,
2013-08-17 22:43:00,66.0,64.0,30.14,ENE,63,2.0,9.0,93,0.30,,,0.57,,2013-08-18 03:43:00,
2013-08-17 22:53:00,66.0,64.0,30.13,ESE,108,4.0,9.0,93,0.31,,,0.59,,2013-08-18 03:53:00,
2013-08-17 23:02:00,-999.0,-99.9,30.13,ESE,102,3.0,9.0,-999,0.11,,,0.60,,2013-08-18 04:02:00,
2013-08-17 23:12:00,65.0,63.0,30.13,ESE,102,3.0,9.0,93,0.11,,,0.60,,2013-08-18 04:12:00,
2013-08-17 23:23:00,65.0,63.0,30.13,East,97,1.0,7.0,93,0.04,,,0.60,,2013-08-18 04:23:00,
2013-08-17 23:42:00,65.0,63.0,30.12,ENE,64,1.0,7.0,94,0.02,,,0.60,,2013-08-18 04:42:00,
2013-08-17 23:53:00,65.0,63.0,30.12,East,92,0.0,4.0,94,0.01,,,0.60,,2013-08-18 04:53:00,